Regional Weather Roundup
Issued by NWS

Home | Current Version | Previous Version | Text Only | Print | Product List | Glossary On
Versions: 1 2 3 4 5 6 7 8 9 10 11 12 13 14 15 16 17 18 19 20 21 22 23 24 25 26 27 28 29 30 31 32 33 34 35 36 37 38 39 40 41 42 43 44 45 46 47 48 49 50
000
ASUS43 KMPX 230510
RWRMN
WEATHER ROUNDUP FOR MINNESOTA
NATIONAL WEATHER SERVICE TWIN CITIES/CHANHASSEN MN
1200 AM CDT WED MAY 23 2018


NOTE: "FAIR" INDICATES FEW OR NO CLOUDS BELOW 12,000 FEET WITH NO
SIGNIFICANT WEATHER AND/OR OBSTRUCTIONS TO VISIBILITY. N/A MEANS
CURRENT SKY AND/OR WEATHER CONDITIONS ARE NOT AVAILABLE.

MNZ060>063-068>070-230600-
   Twin Cities Metro

CITY           SKY/WX    TMP DP  RH WIND       PRES   REMARKS
TWIN CITIES    MOCLDY    65  58  78 SE7       30.07R
ST PAUL        FAIR      64  56  75 SE7       30.07R
CRYSTAL        FAIR      62  56  80 CALM      30.06R
BLAINE         FAIR      61  57  88 CALM      30.07R
LAKEVILLE      FAIR      63  57  82 SE5       30.07S
EDEN PRAIRIE   FAIR      66  57  72 E7        30.06R
SOUTH ST PAUL  FAIR      64  57  77 CALM      30.07R
LAKE ELMO      FAIR      59  55  88 CALM      30.09R
$$
MNZ001>005-007-008-013>017-022>024-027-028-230600-
   Northwest Minnesota

CITY           SKY/WX    TMP DP  RH WIND       PRES   REMARKS
BEMIDJI        FAIR      59  53  81 CALM      30.05S
HALLOCK        FAIR      70  54  56 SE7       29.99R
ROSEAU         FAIR      66  52  59 SE6       30.02R
WARROAD        FAIR      59  52  77 S3        30.03R
THIEF RVR FALL FAIR      64  53  67 SE6       30.03R
CROOKSTON      FAIR      63  54  72 SE8       30.01S
FOSSTON        FAIR      63  52  67 SE6       30.04S
DETROIT LAKES  FAIR      64  55  72 SE8       30.05S
MOORHEAD       FAIR      68  54  60 SE7       30.01R
PARK RAPIDS    FAIR      64  55  72 SE6       30.05S
MAHNOMEN       FAIR      63  55  74 SE5       30.03R
$$
MNZ006-009>011-018-025>026-230600-
   North Central Minnesota

CITY           SKY/WX    TMP DP  RH WIND       PRES   REMARKS
BAUDETTE       FAIR      58  52  80 CALM      30.03S
FLAG ISLAND    FAIR      61  54  77 CALM      30.01R
INTL FALLS     FAIR      54  48  80 CALM      30.03S
WASKISH          N/A     55  54  94 CALM      30.04S
BIG FORK       FAIR      54  52  94 CALM      30.06R
LONGVILLE      FAIR      54  52  94 CALM      30.06S
GRAND RAPIDS   FAIR      60  54  80 S6        30.09R
CRANE LAKE     FAIR      46  45  93 CALM      30.06R
ORR            FAIR      61  52  72 CALM      30.03S
COOK           FAIR      57  52  82 CALM      30.07R
WALKER         FAIR      56  54  91 CALM      30.06R
$$
MNZ012-019>021-037-230600-
   Northeast Minnesota

CITY           SKY/WX    TMP DP  RH WIND       PRES   REMARKS
DULUTH         FAIR      60  53  77 W7        30.07R
ELY            FAIR      54  45  71 CALM      30.05S
HIBBING        FAIR      51  49  92 CALM      30.06R
EVELETH        FAIR      54  52  94 CALM      30.08R
DULUTH HARBOR  FAIR      63  57  82 SW7       30.05S
TWO HARBORS    FAIR      64  55  72 NW5       30.04R
SILVER BAY     FAIR      55  54  94 CALM      30.03S
GRAND MARAIS     N/A     46  41  82 SW9       30.02S
G MARAIS ARPRT FAIR      55  46  71 CALM      30.07R
$$
MNZ029>031-032-039>041-046>048-054>057-064-230600-
   West Central Minnesota

CITY           SKY/WX    TMP DP  RH WIND       PRES   REMARKS
FERGUS FALLS   FAIR      68  55  64 SE9       29.99R
WHEATON        PTCLDY    66  55  68 E7        30.03R
MORRIS         PTCLDY    66  55  68 E13       30.02S
ALEXANDRIA     FAIR      66  55  67 SE8       30.07R
ELBOW LAKE     FAIR      65  56  72 SE9       30.04R
WADENA         FAIR      61  54  77 E5        30.05S
GLENWOOD       FAIR      61  55  82 E7        30.06S
APPLETON       PTCLDY    70  55  60 E10       30.01R
BENSON         PTCLDY    66  57  72 SE7       30.05R
ORTONVILLE     PTCLDY    68  55  64 E10       30.00S
MADISON        CLOUDY    70  57  64 E9        30.00S
WILLMAR        FAIR      66  57  72 E9        30.07R
$$
MNZ033>034-036-042>043-049>051-058-059-230600-
   Central Minnesota

CITY           SKY/WX    TMP DP  RH WIND       PRES   REMARKS
ST CLOUD       FAIR      61  55  81 E3        30.06R
SAUK CENTRE    FAIR      60  55  84 CALM      30.07R
PAYNESVILLE    FAIR      61  58  90 CALM      30.07R
PINE RIVER     FAIR      54  50  87 CALM      30.10R
BRAINERD       FAIR      57  54  89 CALM      30.07R
STAPLES        FAIR      55  54  94 CALM      30.07R
LONG PRAIRIE   FAIR      59  54  82 CALM      30.07R
LITTLE FALLS   FAIR      54  54 100 CALM      30.07R
LITCHFIELD     FAIR      64  59  82 E5        30.07R
BUFFALO        FAIR      61  54  75 CALM      30.07R
MAPLE LAKE     FAIR      63  57  83 CALM      30.07R
HUTCHINSON     FAIR      65  59  78 E7        30.06R
$$
MNZ037-044-045-052-053-230600-
   East Central Minnesota

CITY           SKY/WX    TMP DP  RH WIND       PRES   REMARKS
PRINCETON      FAIR      61  55  82 CALM      30.07R
MORA           FAIR      54  52  94 CALM      30.09R FOG
CAMBRIDGE      FAIR      59  52  77 CALM      30.07R
RUSH CITY      FAIR      54  53  95 CALM      30.07R FOG
MOOSE LAKE     FAIR      52  50  93 CALM      30.06R
HINCKLEY       FAIR      52  52 100 CALM      30.08R
CLOQUET        FAIR      54  48  82 W3        30.08R
MCGREGOR       FAIR      54  52  94 CALM      30.07S
$$
MNZ071>073-080-081-089-090-097-098-230600-
   Southwest Minnesota

CITY           SKY/WX    TMP DP  RH WIND       PRES   REMARKS
MONTEVIDEO     CLOUDY    68  57  68 SE12      30.02R
GRANITE FALLS  CLOUDY    69  58  68 E7        30.03R
CANBY          PTCLDY    67  58  72 SE5       30.02R
MARSHALL       PTCLDY    68  59  73 SE6       30.01R
REDWOOD FALLS  PTCLDY    65  58  78 E7        30.01R
OLIVIA         CLOUDY    68  57  68 E7        30.02S
PIPESTONE      CLOUDY    70  61  73 SE9       30.01R
WINDOM         MOCLDY    70  50  49 SE5       30.01S
WORTHINGTON    LGT RAIN  70  63  78 SE7       30.02S
JACKSON        CLOUDY    68  61  77 SE9       30.03R
TRACY          CLOUDY    68  63  82 SE3       30.01R
SLAYTON        CLOUDY    65  60  85 SE7       30.03R
$$
MNZ065>067-074>077-082>085-091>093-230600-
   South Central Minnesota

CITY           SKY/WX    TMP DP  RH WIND       PRES   REMARKS
MANKATO        FAIR      66  59  78 SE13      30.04S
NEW ULM        CLOUDY    68  57  68 SE10      30.02S
ST JAMES       PTCLDY    68  57  68 E7        30.03R
FAIRMONT       CLOUDY    72  61  68 S15       30.02S
GLENCOE        FAIR      67  58  74 E8        30.05R
FARIBAULT      FAIR      64  59  82 CALM      30.07R
OWATONNA       FAIR      64  57  77 SE12      30.07R
WASECA         FAIR      63  55  77 E12       30.07R
ALBERT LEA     FAIR      64  55  72 SE10      30.06S
$$
MNZ078>079-086>088-094>096-230600-
   Southeast Minnesota

CITY           SKY/WX    TMP DP  RH WIND       PRES   REMARKS
ROCHESTER      FAIR      59  57  93 SE9       30.09R
RED WING       FAIR      59  55  88 CALM      30.07R
STANTON        FAIR      64  58  80 SE5       30.07R
DODGE CENTER   FAIR      59  55  88 SE8       30.08S
WINONA         FAIR      55  55 100 CALM      30.07S
AUSTIN         FAIR      63  57  82 E7        30.08R
PRESTON        FAIR      59  56  88 SE6       30.10S
$$
ABBREVIATIONS USED IN REMARKS
   TC - TEMPERATURES IN CELSIUS
  WCI - WIND CHILL INDEX
   HX - HEAT INDEX
  VSB - VISIBILITY
$$



USA.gov is the U.S. government's official web portal to all federal, state and local government web resources and services.